• en France
  • Liste des pays
  • À 7 jours
  • Température de l'eau
  • Carte satellitaire
  • Carte météo
  • Widgets météo
  • user-avatar
    Se connecter

    Météo par heure à Ondjiva 

    Ce jour, 18 Septembre, Mardi

    Heure Température Précipitation Vent Pression Humidité
    00:00 +24°C° 0 mm 2 m/s 665 mmHg 12%
    01:00 +23°C° 0 mm 1 m/s 665 mmHg 13%
    02:00 +21°C° 0 mm 2 m/s 665 mmHg 14%
    03:00 +20°C° 0 mm 2 m/s 665 mmHg 16%
    04:00 +19°C° 0 mm 2 m/s 665 mmHg 17%
    05:00 +20°C° 0 mm 2 m/s 666 mmHg 17%
    06:00 +21°C° 0 mm 2 m/s 666 mmHg 16%
    07:00 +23°C° 0 mm 2 m/s 667 mmHg 16%
    08:00 +27°C° 0 mm 3 m/s 668 mmHg 13%
    09:00 +31°C° 0 mm 3 m/s 668 mmHg 10%
    10:00 +35°C° 0 mm 4 m/s 669 mmHg 7%
    11:00 +37°C° 0 mm 4 m/s 669 mmHg 6%
    12:00 +38°C° 0 mm 3 m/s 668 mmHg 5%
    13:00 +39°C° 0 mm 3 m/s 668 mmHg 5%
    14:00 +39°C° 0 mm 3 m/s 668 mmHg 5%
    15:00 +39°C° 0 mm 2 m/s 667 mmHg 5%
    16:00 +39°C° 0 mm 1 m/s 667 mmHg 5%
    17:00 +36°C° 0 mm 2 m/s 667 mmHg 7%
    18:00 +32°C° 0 mm 2 m/s 666 mmHg 8%
    19:00 +29°C° 0 mm 2 m/s 666 mmHg 9%
    20:00 +28°C° 0 mm 2 m/s 666 mmHg 10%
    21:00 +27°C° 0 mm 3 m/s 666 mmHg 10%
    22:00 +26°C° 0 mm 3 m/s 667 mmHg 11%
    23:00 +25°C° 0 mm 3 m/s 667 mmHg 12%

    Demain, 19 Septembre, Mercredi

    Heure Température Précipitation Vent Pression Humidité
    00:00 +24°C° 0 mm 3 m/s 667 mmHg 13%
    01:00 +22°C° 0 mm 3 m/s 667 mmHg 14%
    02:00 +22°C° 0 mm 3 m/s 666 mmHg 16%
    03:00 +21°C° 0 mm 2 m/s 666 mmHg 17%
    04:00 +20°C° 0 mm 2 m/s 666 mmHg 18%
    05:00 +21°C° 0 mm 3 m/s 667 mmHg 18%
    06:00 +22°C° 0 mm 3 m/s 667 mmHg 17%
    07:00 +22°C° 0 mm 4 m/s 668 mmHg 16%
    08:00 +27°C° 0 mm 4 m/s 669 mmHg 13%
    09:00 +32°C° 0 mm 5 m/s 669 mmHg 10%
    10:00 +35°C° 0 mm 5 m/s 670 mmHg 7%
    11:00 +37°C° 0 mm 4 m/s 669 mmHg 7%
    12:00 +39°C° 0 mm 3 m/s 669 mmHg 6%
    13:00 +40°C° 0 mm 3 m/s 668 mmHg 6%
    14:00 +40°C° 0 mm 2 m/s 668 mmHg 6%
    15:00 +40°C° 0 mm 2 m/s 667 mmHg 6%
    16:00 +40°C° 0 mm 2 m/s 666 mmHg 6%
    17:00 +37°C° 0 mm 2 m/s 666 mmHg 7%
    18:00 +35°C° 0 mm 2 m/s 666 mmHg 9%
    19:00 +31°C° 0 mm 3 m/s 665 mmHg 10%
    20:00 +30°C° 0 mm 4 m/s 666 mmHg 10%
    21:00 +29°C° 0 mm 4 m/s 666 mmHg 11%
    22:00 +28°C° 0 mm 5 m/s 667 mmHg 11%
    23:00 +27°C° 0 mm 4 m/s 666 mmHg 11%

    Après-demain, 20 Septembre, Jeudi

    Heure Température Précipitation Vent Pression Humidité
    00:00 +25°C° 0 mm 4 m/s 666 mmHg 12%
    01:00 +23°C° 0 mm 4 m/s 666 mmHg 13%
    02:00 +22°C° 0 mm 4 m/s 666 mmHg 13%
    03:00 +22°C° 0 mm 3 m/s 666 mmHg 14%
    04:00 +21°C° 0 mm 3 m/s 665 mmHg 14%
    05:00 +21°C° 0 mm 3 m/s 666 mmHg 14%
    06:00 +22°C° 0 mm 4 m/s 666 mmHg 13%
    07:00 +23°C° 0 mm 4 m/s 667 mmHg 12%
    08:00 +27°C° 0 mm 5 m/s 667 mmHg 10%
    09:00 +32°C° 0 mm 5 m/s 668 mmHg 9%
    10:00 +36°C° 0 mm 5 m/s 669 mmHg 7%
    11:00 +39°C° 0 mm 5 m/s 668 mmHg 6%
    12:00 +41°C° 0 mm 5 m/s 667 mmHg 6%
    13:00 +43°C° 0 mm 4 m/s 667 mmHg 5%
    14:00 +42°C° 0 mm 4 m/s 666 mmHg 5%
    15:00 +42°C° 0 mm 4 m/s 665 mmHg 5%
    16:00 +42°C° 0 mm 3 m/s 665 mmHg 5%
    17:00 +38°C° 0 mm 3 m/s 664 mmHg 6%
    18:00 +35°C° 0 mm 3 m/s 664 mmHg 8%
    19:00 +31°C° 0 mm 3 m/s 664 mmHg 9%
    20:00 +30°C° 0 mm 3 m/s 664 mmHg 10%
    21:00 +29°C° 0 mm 3 m/s 665 mmHg 10%
    22:00 +28°C° 0 mm 3 m/s 665 mmHg 11%
    23:00 +28°C° 0 mm 3 m/s 665 mmHg 12%

    21 Septembre, Vendredi

    Heure Température Précipitation Vent Pression Humidité
    00:00 +27°C° 0 mm 4 m/s 665 mmHg 12%
    01:00 +27°C° 0 mm 4 m/s 665 mmHg 13%
    02:00 +26°C° 0 mm 4 m/s 665 mmHg 15%
    03:00 +25°C° 0 mm 4 m/s 664 mmHg 17%
    04:00 +22°C° 0 mm 4 m/s 664 mmHg 20%
    05:00 +23°C° 0 mm 4 m/s 665 mmHg 19%
    06:00 +23°C° 0 mm 4 m/s 665 mmHg 18%
    07:00 +25°C° 0 mm 5 m/s 666 mmHg 17%
    08:00 +28°C° 0 mm 4 m/s 667 mmHg 14%
    09:00 +33°C° 0 mm 4 m/s 667 mmHg 11%
    10:00 +36°C° 0 mm 3 m/s 668 mmHg 8%
    11:00 +38°C° 0 mm 4 m/s 667 mmHg 8%
    12:00 +40°C° 0 mm 4 m/s 667 mmHg 8%
    13:00 +42°C° 0 mm 5 m/s 666 mmHg 8%
    14:00 +42°C° 0 mm 4 m/s 666 mmHg 8%
    15:00 +40°C° 0 mm 3 m/s 665 mmHg 8%
    16:00 +40°C° 0 mm 3 m/s 664 mmHg 8%
    17:00 +38°C° 0 mm 2 m/s 664 mmHg 10%
    18:00 +34°C° 0 mm 1 m/s 664 mmHg 12%
    19:00 +32°C° 0 mm 1 m/s 664 mmHg 13%
    20:00 +31°C° 0 mm 1 m/s 665 mmHg 14%
    21:00 +31°C° 0 mm 2 m/s 666 mmHg 15%
    22:00 +31°C° 0 mm 3 m/s 666 mmHg 15%
    23:00 +30°C° 0 mm 3 m/s 666 mmHg 17%

    22 Septembre, Samedi

    Heure Température Précipitation Vent Pression Humidité
    00:00 +28°C° 0 mm 4 m/s 665 mmHg 18%
    01:00 +27°C° 0 mm 4 m/s 665 mmHg 19%
    02:00 +25°C° 0 mm 3 m/s 665 mmHg 21%
    03:00 +24°C° 0 mm 3 m/s 664 mmHg 22%
    04:00 +23°C° 0 mm 2 m/s 664 mmHg 23%
    05:00 +22°C° 0 mm 3 m/s 665 mmHg 22%
    06:00 +24°C° 0 mm 3 m/s 666 mmHg 21%
    07:00 +25°C° 0 mm 4 m/s 666 mmHg 19%
    08:00 +28°C° 0 mm 3 m/s 667 mmHg 17%
    09:00 +31°C° 0 mm 3 m/s 667 mmHg 14%
    10:00 +36°C° 0 mm 3 m/s 668 mmHg 11%
    11:00 +37°C° 0 mm 3 m/s 667 mmHg 10%
    12:00 +39°C° 0 mm 3 m/s 667 mmHg 10%
    13:00 +40°C° 0 mm 3 m/s 666 mmHg 9%
    14:00 +40°C° 0 mm 3 m/s 666 mmHg 9%
    15:00 +40°C° 0 mm 3 m/s 665 mmHg 9%
    16:00 +40°C° 0 mm 2 m/s 665 mmHg 8%
    17:00 +38°C° 0 mm 2 m/s 665 mmHg 10%
    18:00 +35°C° 0 mm 2 m/s 665 mmHg 11%
    19:00 +32°C° 0 mm 2 m/s 665 mmHg 13%
    20:00 +31°C° 0 mm 2 m/s 666 mmHg 14%
    21:00 +31°C° 0 mm 3 m/s 666 mmHg 14%
    22:00 +30°C° 0 mm 4 m/s 667 mmHg 15%
    23:00 +28°C° 0 mm 4 m/s 666 mmHg 17%

    23 Septembre, Dimanche

    Heure Température Précipitation Vent Pression Humidité
    00:00 +27°C° 0 mm 3 m/s 666 mmHg 18%
    01:00 +25°C° 0 mm 3 m/s 666 mmHg 20%
    02:00 +24°C° 0 mm 3 m/s 665 mmHg 20%
    03:00 +22°C° 0 mm 3 m/s 665 mmHg 21%
    04:00 +22°C° 0 mm 3 m/s 665 mmHg 22%
    05:00 +22°C° 0 mm 4 m/s 666 mmHg 20%
    06:00 +23°C° 0 mm 4 m/s 666 mmHg 19%
    07:00 +25°C° 0 mm 4 m/s 667 mmHg 17%
    08:00 +28°C° 0 mm 4 m/s 668 mmHg 14%
    09:00 +32°C° 0 mm 4 m/s 668 mmHg 12%
    10:00 +35°C° 0 mm 4 m/s 668 mmHg 9%
    11:00 +37°C° 0 mm 3 m/s 668 mmHg 9%
    12:00 +39°C° 0 mm 2 m/s 667 mmHg 8%
    13:00 +41°C° 0 mm 2 m/s 667 mmHg 8%
    14:00 +41°C° 0 mm 2 m/s 666 mmHg 8%
    15:00 +40°C° 0 mm 1 m/s 666 mmHg 8%
    16:00 +40°C° 0 mm 1 m/s 665 mmHg 9%
    17:00 +36°C° 0 mm 1 m/s 665 mmHg 10%
    18:00 +34°C° 0 mm 1 m/s 665 mmHg 12%
    19:00 +31°C° 0 mm 2 m/s 665 mmHg 14%
    20:00 +31°C° 0 mm 2 m/s 665 mmHg 14%
    21:00 +30°C° 0 mm 3 m/s 666 mmHg 14%
    22:00 +30°C° 0 mm 4 m/s 666 mmHg 14%
    23:00 +29°C° 0 mm 4 m/s 666 mmHg 16%
    Voir plus